Theta_e
338 339 340 340 339 339 339 337 336 336 338 338 337 338 333 334 332 331 330 328 327 326 326 326 326 326 317
336 333 334 337 337 336 336 333 331 331 332 333 330 333 332 333 334 332 330 329 327 325 325 326 324 325 318
335 332 330 332 333 333 331 328 326 325 325 325 325 329 333 331 334 333 332 331 330 327 325 324 322 316 317
337 334 331 332 331 330 329 326 325 323 323 324 321 324 328 328 331 332 331 330 326 318 315 318 316 315 317
333 332 331 330 329 328 326 325 323 323 320 320 318 319 319 320 326 327 323 321 320 318 315 315 315 315 315
333 331 331 332 329 327 326 325 322 319 318 317 317 318 318 320 320 319 318 318 316 317 317 316 316 315 313
329 329 329 331 331 330 326 326 324 320 319 317 317 317 317 318 318 317 316 316 315 314 315 315 316 315 313
329 328 328 330 331 330 328 326 324 322 320 319 318 318 318 318 318 317 316 315 315 315 315 316 316 315 313
327 329 329 330 330 330 329 327 326 324 321 320 320 319 320 319 318 316 315 314 314 315 315 316 316 316 314
324 325 327 329 330 330 330 329 328 327 323 320 320 319 320 319 318 316 315 314 314 313 314 315 316 316 316
324 324 325 326 329 330 331 330 329 328 326 322 320 320 318 318 317 317 315 314 312 313 314 314 315 315 316
326 323 323 323 324 326 329 329 329 328 327 324 323 320 318 317 316 315 315 313 314 314 314 315 315 316 316
323 323 323 322 323 323 325 326 327 327 327 326 325 322 319 318 317 316 314 313 312 311 310 311 313 314 315
326 326 326 324 325 325 326 326 326 326 326 326 325 325 321 320 317 315 315 312 313 312 311 308 307 309 313
325 325 324 325 323 323 325 327 327 327 327 325 326 325 324 322 320 317 316 315 314 312 314 311 305 305 305
324 323 323 324 323 325 326 327 328 328 327 327 325 325 325 323 321 321 318 316 315 313 311 315 315 309 304
Wind_Speed
11 11 11 11 9 8 6 8 7 3 9 8 6 11 10 9 8 7 5 3 2 2 2 4 5 4 5
6 10 11 10 10 9 7 7 6 6 4 6 6 7 9 10 11 8 5 3 3 1 0 2 3 6 4
6 7 9 10 10 10 8 8 6 3 3 4 4 5 7 9 4 7 6 5 5 4 4 3 2 1 4
5 5 5 5 5 5 5 6 4 4 4 4 5 7 6 9 7 6 6 6 5 2 3 3 0 1 3
5 4 3 3 3 4 6 5 5 4 4 3 2 2 2 5 3 3 3 2 4 3 3 3 2 2 3
5 4 5 6 4 4 5 7 5 3 4 4 3 4 4 3 5 4 3 4 5 5 5 5 5 4 3
8 5 5 7 7 7 6 7 6 5 6 4 4 4 4 4 4 4 4 4 5 5 5 6 6 6 6
10 9 7 6 7 8 6 7 8 6 5 6 5 5 4 4 4 4 5 5 5 5 6 6 7 6 6
12 10 9 7 7 7 7 8 9 9 8 8 6 6 6 5 6 5 5 4 4 5 7 6 6 7 6
10 8 7 8 8 7 7 7 10 9 8 7 6 7 6 5 6 5 6 6 6 5 6 6 6 6 7
10 7 8 9 8 7 7 7 9 10 9 9 8 7 6 6 6 6 5 5 5 6 7 6 6 7 7
7 6 4 5 7 7 8 7 9 9 11 10 9 8 7 6 6 5 8 5 6 7 6 7 7 7 7
4 6 7 10 7 6 7 10 11 11 12 12 10 8 8 9 10 9 6 8 7 3 2 4 7 8 10
7 6 5 4 7 7 6 9 11 12 13 12 11 10 11 9 10 9 10 5 7 6 5 1 6 5 8
7 2 1 1 2 2 6 7 10 14 13 12 13 12 11 11 11 11 11 13 10 5 11 6 2 6 2
5 5 7 8 8 7 8 7 8 9 10 12 12 13 13 10 12 11 10 12 10 11 3 10 13 4 4
Wind_Direction
174 170 177 178 179 179 186 186 209 198 172 170 203 165 171 173 177 176 167 151 103 59 49 41 4 144 138
186 185 183 182 178 187 192 191 209 217 215 188 185 204 197 197 187 183 183 208 226 236 319 34 7 137 150
189 199 193 185 184 184 187 189 204 220 227 225 206 220 222 214 178 175 207 227 249 277 313 339 23 189 181
200 189 207 196 186 183 182 190 188 207 222 200 216 229 235 220 214 207 229 240 253 283 291 313 270 210 190
213 186 193 201 200 191 188 190 191 193 198 213 230 234 214 238 213 209 247 245 248 250 260 268 262 227 218
190 204 197 202 202 205 202 194 183 195 207 210 196 211 215 202 196 203 211 234 251 257 252 259 262 229 227
189 185 206 209 210 208 204 205 192 199 202 193 215 203 203 193 206 214 215 221 233 244 249 242 248 232 225
201 187 197 208 214 212 207 209 204 202 209 206 204 210 212 203 202 203 214 224 233 225 245 243 240 232 224
208 202 196 201 205 212 216 214 210 206 210 210 208 212 215 207 208 209 223 222 233 239 242 243 236 234 229
212 205 207 194 196 212 209 211 216 216 209 210 218 213 207 205 209 209 216 229 234 230 242 242 240 233 230
210 209 206 202 204 208 209 208 210 216 212 211 216 218 194 208 212 212 218 215 218 235 238 240 239 239 237
208 196 206 199 209 209 209 221 212 213 215 214 224 215 192 207 218 209 222 209 228 232 241 243 239 238 237
181 209 220 220 214 211 211 214 208 217 215 216 224 212 201 215 218 212 215 220 237 205 262 263 255 244 241
209 223 219 204 231 221 216 221 223 225 226 219 223 217 206 216 218 206 208 215 232 178 218 136 281 280 244
219 169 151 111 270 198 221 227 221 228 228 222 227 226 219 213 220 216 213 215 233 200 201 203 239 238 314
215 196 196 223 234 232 243 234 238 231 232 235 228 231 233 228 230 221 211 217 218 234 203 225 237 192 236